Terminal Aerodrome Forecast
Issued by NWS

Home | Current Version | Previous Version | Text Only | Print | Product List | Glossary Off
Versions: 1 2 3 4 5 6 7 8 9 10 11 12 13 14 15

729
FTUS42 KMHX 140543
TAFISO
TAF
KISO 140543Z 1406/1506 05009KT P6SM OVC050
     FM141400 03007KT P6SM OVC020
     FM150000 VRB03KT P6SM SCT008 BKN020
      AMD LTD TO CLD VIS AND WIND=

USA.gov is the U.S. government's official web portal to all federal, state and local government web resources and services.